Weather Roundup
Issued by NWS

Home | Current Version | Previous Version | Text Only | Print | Product List | Glossary On
Versions: 1 2 3 4 5 6 7 8 9 10 11 12 13 14 15 16 17 18 19 20 21 22 23 24 25 26 27 28 29 30 31 32 33 34 35 36 37 38 39 40 41 42 43 44 45 46 47 48 49 50
000
NZUS93 KARX 220259
HRRWXR

CURRENT HOURLY OBSERVATIONS ACROSS
MUCH OF THE UPPER MISSISSIPPI VALLEY
NATIONAL WEATHER SERVICE LA CROSSE WI
900 PM CST SAT JAN 21 2017


...SOUTHEAST MINNESOTA...


CITY           SKY/WX    TMP DP  RH WIND       PRES   REMARKS
ROCHESTER      FOG       34  34 100 SW9       29.50S VSB 1/2 WCI  27
ROCHESTER/MAYO CLOUDY    37  37 100 CALM      29.51R
WINONA         CLOUDY    36  36 100 CALM      29.52S FOG
AUSTIN         CLOUDY    36  36 100 W8        29.51R FOG     WCI  29
ALBERT LEA     CLOUDY    36  36 100 W6        29.51R FOG     WCI  31
DODGE CENTER   FOG       34  34 100 CALM      29.50R VSB 3/4
PRESTON        FOG       35  34  97 SW5       29.51R VSB 1   WCI  31
OWATONNA       FOG       36  34  93 S3        29.51R VSB 1
FARIBAULT      NOT AVBL
$$

...ELSEWHERE IN MINNESOTA...


CITY           SKY/WX    TMP DP  RH WIND       PRES   REMARKS
MINNEAPOLIS    FOG       36  35  96 CALM      29.52R VSB 3/4
INTNL FALLS    FOG       35  34  96 E5        29.55R VSB 1/2 WCI  31
DULUTH         DRZL/FOG  35  35 100 NE3       29.51R VSB 1
RED WING       FOG       36  34  93 CALM      29.51S VSB 1/2
REDWOOD FALLS  FOG       35  33  92 N5        29.50R VSB 1/4 WCI  31
MANKATO        FOG       35  34  96 CALM      29.51R VSB 1/2
WORTHINGTON    CLOUDY    31  30  96 W10       29.52R WCI  22
FAIRMONT       CLOUDY    33  32  96 W8        29.52R FOG     WCI  26
$$

...SOUTHWEST WISCONSIN...


CITY           SKY/WX    TMP DP  RH WIND       PRES   REMARKS
LA CROSSE      FOG       41  38  89 S5        29.52R VSB 1/2
PRAIRIE DU CHI CLOUDY    40  39  97 CALM      29.54R FOG
BOSCOBEL       CLOUDY    42  40  92 SW5       29.55R FOG
LONE ROCK      NOT AVBL
PLATTEVILLE    CLOUDY    40  40 100 S7        29.55R VSB 3/4 WCI  35
FORT MC COY    FOG       38  38 100 CALM      29.52S VSB 1/2
MAUSTON-NEW LI FOG       38  38 100 CALM      29.51R VSB 3/4
VIROQUA        CLOUDY    37  37 100 SW5       29.51S VSB 1/4 WCI  34
WIS DELLS      FOG       39  39  99 S5        29.52S VSB<1/4
$$

...ELSEWHERE IN WISCONSIN...


CITY           SKY/WX    TMP DP  RH WIND       PRES   REMARKS
MILWAUKEE      CLOUDY    45  41  86 W8        29.57R
MADISON        CLOUDY    42  41  96 S5        29.56R
GREEN BAY      CLOUDY    38  38 100 SW5       29.53R FOG     WCI  34
EAU CLAIRE     FOG       34  32  92 CALM      29.49R VSB 1/4
BLACK RVR FLS  FOG       40  40 100 SW5       29.50S VSB 1/4
MEDFORD        FOG       34  34  99 SE5       29.48R VSB 1/4 WCI  30
WAUSAU         FOG       35  35 100 SE3       29.49S VSB 1/4
WIS RAPIDS     FOG       38  38 100 S3        29.51S VSB 1/4
MARSHFIELD     FOG       36  35  96 CALM      29.48R VSB 1/4
RICE LAKE      FOG       34  34 100 CALM      29.51R VSB<1/4
$$

...NORTHEAST IOWA...


CITY           SKY/WX    TMP DP  RH WIND       PRES   REMARKS
WATERLOO       PTCLDY    36  34  92 W7        29.55R WCI  30
DUBUQUE        CLOUDY    39  39 100 S5        29.55R FOG
DECORAH        NOT AVBL
MASON CITY     PTCLDY    34  32  92 SW6       29.53R WCI  29
CHARLES CITY   CLOUDY    36  36 100 W6        29.53S FOG     WCI  31
OELWEIN        NOT AVBL
$$

...ELSEWHERE IN IOWA...


CITY           SKY/WX    TMP DP  RH WIND       PRES   REMARKS
DES MOINES     PTCLDY    37  34  89 CALM      29.55R
IOWA CITY      CLOUDY    41  37  86 CALM      29.59R
FORT DODGE     MOCLDY    34  30  86 NW5       29.55R WCI  30
MARSHALLTOWN   PTCLDY    35  34  96 SW7       29.55R WCI  29
CEDAR RAPIDS   CLOUDY    38  37  97 SW6       29.56R WCI  33
$$

...NORTHERN ILLINOIS...


CITY           SKY/WX    TMP DP  RH WIND       PRES   REMARKS
CHICAGO-OHARE  PTCLDY    44  41  89 NW6       29.57R
CHICAGO-MIDWAY PTCLDY    48  41  76 SW3       29.58R
MOLINE         CLOUDY    43  39  86 SW5       29.58R
ROCKFORD       CLOUDY    43  40  89 SW5       29.60R
PEORIA         CLEAR     46  43  89 N5        29.58R
$$

NOTE: "FAIR" INDICATES FEW OR NO CLOUDS BELOW 12,000 FEET WITH NO
SIGNIFICANT WEATHER AND/OR OBSTRUCTIONS TO VISIBILITY. WIND
SPEEDS ARE IN MILES-PER-HOUR.




USA.gov is the U.S. government's official web portal to all federal, state and local government web resources and services.